Regional Weather Roundup
Issued by NWS

Home | Current Version | Previous Version | Text Only | Print | Product List | Glossary Off
Versions: 1 2 3 4 5 6 7 8 9 10 11 12 13 14 15 16 17 18 19 20 21 22 23 24 25 26 27 28 29 30 31 32 33 34 35 36 37 38 39 40 41 42 43 44 45 46 47 48

000
ASUS45 KCYS 031810
RWRWY

WYOMING REGIONAL WEATHER ROUNDUP
NATIONAL WEATHER SERVICE CHEYENNE WY
1200 PM MDT THU SEP 03 2015

NOTE:  "FAIR" INDICATES FEW OR NO CLOUDS BELOW 12,000 FEET
WITH NO SIGNIFICANT WEATHER AND/OR OBSTRUCTIONS TO VISIBILITY.

WYZ001-031900-
YELLOWSTONE NATIONAL PARK

CITY           SKY/WX    TMP DP  RH WIND       PRES   REMARKS
LK YELLOWSTONE   N/A     66  38  35 VRB3      30.08F
6HR MIN TEMP:  44; 6HR MAX TEMP:  66;

W YELLOWSTONE  NOT AVBL

$$
WYZ002>013-054>058-071-098>099-031900-
NORTHERN WYOMING

CITY           SKY/WX    TMP DP  RH WIND       PRES   REMARKS
JACKSON        PTSUNNY   75  37  25 S22G31    29.98F
CODY           FAIR      66  39  37 NE5       29.90F
GREYBULL       FAIR      79  36  21 W9        29.82F
6HR MIN TEMP:  57; 6HR MAX TEMP:  80;

WORLAND        FAIR      79  42  26 CALM      29.84F
6HR MIN TEMP:  60; 6HR MAX TEMP:  79;

SHERIDAN       FAIR      73  36  25 CALM      29.86F
6HR MIN TEMP:  62; 6HR MAX TEMP:  73;

BUFFALO        FAIR      77  37  23 SE8       29.92F
6HR MIN TEMP:  63; 6HR MAX TEMP:  77;

GILLETTE       FAIR      81  41  24 VRB3      29.88F
6HR MIN TEMP:  68; 6HR MAX TEMP:  84;

HULETT         FAIR      82  41  23 SW10      29.89S
NEWCASTLE      FAIR      84  37  18 E5        29.89F

$$
WYZ014>020-022>026-101>103-031900-
CENTRAL WYOMING

CITY           SKY/WX    TMP DP  RH WIND       PRES   REMARKS
BIG PINEY      FAIR      75  36  24 SW16G24   30.08F
6HR MIN TEMP:  45; 6HR MAX TEMP:  76;

PINEDALE       FAIR      70  36  28 S9        30.09F
DUBOIS         MOCLDY    72  32  23 W20G28    30.04F
LANDER         FAIR      80  36  20 SW12      29.93F
6HR MIN TEMP:  68; 6HR MAX TEMP:  83;

RIVERTON       FAIR      77  37  23 S8        29.95F
6HR MIN TEMP:  61; 6HR MAX TEMP:  77;

CASPER         FAIR      83  40  21 S18       29.97F
6HR MIN TEMP:  60; 6HR MAX TEMP:  83;

DOUGLAS        FAIR      90  36  14 VRB3      29.94F
6HR MIN TEMP:  59; 6HR MAX TEMP:  90;


$$
WYZ021-027>030-104>119-031900-
SOUTHERN WYOMING

CITY           SKY/WX    TMP DP  RH WIND       PRES   REMARKS
EVANSTON       FAIR      74  31  20 SW22G39   30.09F
6HR MIN TEMP:  58; 6HR MAX TEMP:  75;

KEMMERER       FAIR      70  30  23 S23G30    30.10F
FORT BRIDGER   CLEAR     75  28  17 W21G28    30.12F
ROCK SPRINGS   FAIR      75  38  26 SW7       30.08F
6HR MIN TEMP:  59; 6HR MAX TEMP:  76;

DIXON          FAIR      78  41  26 S15G22    30.14F
RAWLINS        FAIR      79  38  22 SW16G22   30.10F
6HR MIN TEMP:  64; 6HR MAX TEMP:  79;

SARATOGA       FAIR      79  39  24 W16G28    30.14F
LARAMIE        FAIR      76  40  27 W14       30.13F
6HR MIN TEMP:  52; 6HR MAX TEMP:  77;

CHEYENNE       PTSUNNY   82  39  21 SW3       30.07F
6HR MIN TEMP:  61; 6HR MAX TEMP:  83;

TORRINGTON     FAIR      87  45  23 CALM      29.90F
6HR MIN TEMP:  61; 6HR MAX TEMP:  87;

PINE BLUFFS    CLOUDY    82  37  20 S3        30.01S

$$



USA.gov is the U.S. government's official web portal to all federal, state and local government web resources and services.